Time,TemperatureF,DewpointF,PressureIn,WindDirection,WindDirectionDegrees,WindSpeedMPH,WindSpeedGustMPH,Humidity,HourlyPrecipIn,Conditions,Clouds,dailyrainin,SolarRadiationWatts/m^2,SoftwareType,DateUTC
2013-02-16 00:00:00,32.6,29.2,30.03,NW,319,2.0,2.0,87,0.00,,,0.00,0,Wunderground v.1.15,2013-02-16 05:00:00,
2013-02-16 00:10:00,32.6,29.2,30.04,WNW,302,1.0,3.0,87,0.00,,,0.00,0,Wunderground v.1.15,2013-02-16 05:10:00,
2013-02-16 00:20:00,32.5,29.1,30.04,NW,305,2.0,2.0,87,0.00,,,0.00,0,Wunderground v.1.15,2013-02-16 05:20:00,
2013-02-16 00:30:00,32.4,29.0,30.03,NNW,335,1.0,1.0,87,0.00,,,0.00,0,Wunderground v.1.15,2013-02-16 05:30:00,
2013-02-16 00:40:00,32.3,28.9,30.03,NW,309,1.0,1.0,87,0.00,,,0.00,0,Wunderground v.1.15,2013-02-16 05:40:00,
2013-02-16 00:50:00,32.2,28.2,30.03,NW,323,1.0,1.0,85,0.00,,,0.00,0,Wunderground v.1.15,2013-02-16 05:50:00,
2013-02-16 01:00:00,32.1,28.7,30.02,North,360,0.0,1.0,87,0.00,,,0.00,0,Wunderground v.1.15,2013-02-16 06:00:00,
2013-02-16 01:10:00,32.1,28.9,30.03,NW,323,0.0,0.0,88,0.00,,,0.00,0,Wunderground v.1.15,2013-02-16 06:10:00,
2013-02-16 01:20:00,32.0,28.8,30.02,NW,323,0.0,0.0,88,0.00,,,0.00,0,Wunderground v.1.15,2013-02-16 06:20:00,
2013-02-16 01:30:00,31.8,28.4,30.02,NW,323,0.0,0.0,87,0.00,,,0.00,0,Wunderground v.1.15,2013-02-16 06:30:00,
2013-02-16 01:40:00,31.7,28.3,30.01,NW,323,0.0,0.0,87,0.00,,,0.00,0,Wunderground v.1.15,2013-02-16 06:40:00,
2013-02-16 01:50:00,31.6,28.7,30.02,NW,322,0.0,0.0,89,0.00,,,0.00,0,Wunderground v.1.15,2013-02-16 06:50:00,
2013-02-16 02:10:00,31.4,28.5,30.01,NW,323,0.0,0.0,89,0.00,,,0.00,0,Wunderground v.1.15,2013-02-16 07:10:00,
2013-02-16 02:20:00,31.3,28.4,30.01,NW,322,0.0,0.0,89,0.00,,,0.00,0,Wunderground v.1.15,2013-02-16 07:20:00,
2013-02-16 02:30:00,31.3,28.7,30.00,NW,323,0.0,0.0,90,0.00,,,0.00,0,Wunderground v.1.15,2013-02-16 07:30:00,
2013-02-16 02:40:00,31.3,28.4,30.01,WSW,257,0.0,0.0,89,0.00,,,0.00,0,Wunderground v.1.15,2013-02-16 07:40:00,
2013-02-16 02:50:00,31.2,28.6,30.00,WSW,257,0.0,0.0,90,0.00,,,0.00,0,Wunderground v.1.15,2013-02-16 07:50:00,
2013-02-16 03:01:00,31.3,27.0,30.00,NNW,331,1.0,2.0,84,0.00,,,0.00,0,Wunderground v.1.15,2013-02-16 08:01:00,
2013-02-16 03:10:00,31.7,26.5,30.00,NW,308,2.0,2.0,81,0.00,,,0.00,0,Wunderground v.1.15,2013-02-16 08:10:00,
2013-02-16 03:20:00,32.0,26.2,30.00,North,360,1.0,1.0,79,0.00,,,0.00,0,Wunderground v.1.15,2013-02-16 08:20:00,
2013-02-16 03:30:00,32.2,26.1,30.00,NW,315,1.0,1.0,78,0.00,,,0.00,0,Wunderground v.1.15,2013-02-16 08:30:00,
2013-02-16 03:40:00,32.4,26.0,30.00,NNW,329,1.0,5.0,77,0.00,,,0.00,0,Wunderground v.1.15,2013-02-16 08:40:00,
2013-02-16 03:50:00,32.4,26.0,30.00,NW,319,2.0,2.0,77,0.00,,,0.00,0,Wunderground v.1.15,2013-02-16 08:50:00,
2013-02-16 04:00:00,32.3,24.9,30.00,North,360,4.0,4.0,74,0.00,,,0.00,0,Wunderground v.1.15,2013-02-16 09:00:00,
2013-02-16 04:10:00,32.1,24.4,30.00,NNW,346,3.0,4.0,73,0.00,,,0.00,0,Wunderground v.1.15,2013-02-16 09:10:00,
2013-02-16 04:20:00,31.6,22.6,30.00,NW,314,4.0,7.0,69,0.00,,,0.00,0,Wunderground v.1.15,2013-02-16 09:20:00,
2013-02-16 04:30:00,31.1,21.8,30.01,NW,304,2.0,2.0,68,0.00,,,0.00,0,Wunderground v.1.15,2013-02-16 09:30:00,
2013-02-16 04:40:00,30.6,20.6,30.01,NW,304,3.0,5.0,66,0.00,,,0.00,0,Wunderground v.1.15,2013-02-16 09:40:00,
2013-02-16 04:50:00,30.1,20.1,30.00,NW,317,2.0,2.0,66,0.00,,,0.00,0,Wunderground v.1.15,2013-02-16 09:50:00,
2013-02-16 05:10:00,29.4,19.4,30.01,North,360,3.0,3.0,66,0.00,,,0.00,0,Wunderground v.1.15,2013-02-16 10:10:00,
2013-02-16 05:20:00,29.3,19.7,30.00,North,5,3.0,4.0,67,0.00,,,0.00,0,Wunderground v.1.15,2013-02-16 10:20:00,
2013-02-16 05:30:00,29.1,19.8,30.00,NW,313,3.0,3.0,68,0.00,,,0.00,0,Wunderground v.1.15,2013-02-16 10:30:00,
2013-02-16 05:40:00,29.0,20.1,30.00,NW,316,3.0,3.0,69,0.00,,,0.00,0,Wunderground v.1.15,2013-02-16 10:40:00,
2013-02-16 05:50:00,28.8,19.6,30.00,WNW,286,3.0,3.0,68,0.00,,,0.00,0,Wunderground v.1.15,2013-02-16 10:50:00,
2013-02-16 06:00:00,28.7,19.5,30.00,NW,319,4.0,4.0,68,0.00,,,0.00,0,Wunderground v.1.15,2013-02-16 11:00:00,
2013-02-16 06:10:00,28.6,19.7,30.00,NW,321,3.0,3.0,69,0.00,,,0.00,0,Wunderground v.1.15,2013-02-16 11:10:00,
2013-02-16 06:20:00,28.4,19.5,30.01,NNW,345,2.0,2.0,69,0.00,,,0.00,0,Wunderground v.1.15,2013-02-16 11:20:00,
2013-02-16 06:30:00,28.2,19.3,30.00,NW,314,2.0,2.0,69,0.00,,,0.00,0,Wunderground v.1.15,2013-02-16 11:30:00,
2013-02-16 06:40:00,28.1,19.2,30.01,WNW,288,2.0,3.0,69,0.00,,,0.00,0,Wunderground v.1.15,2013-02-16 11:40:00,
2013-02-16 06:50:00,27.9,19.4,30.01,WNW,300,3.0,3.0,70,0.00,,,0.00,0,Wunderground v.1.15,2013-02-16 11:50:00,
2013-02-16 07:00:00,27.9,19.4,30.03,WNW,288,3.0,3.0,70,0.00,,,0.00,5,Wunderground v.1.15,2013-02-16 12:00:00,
2013-02-16 07:10:00,27.8,19.3,30.03,NNE,17,2.0,2.0,70,0.00,,,0.00,7,Wunderground v.1.15,2013-02-16 12:10:00,
2013-02-16 07:20:00,27.6,19.4,30.03,North,360,2.0,2.0,71,0.00,,,0.00,12,Wunderground v.1.15,2013-02-16 12:20:00,
2013-02-16 07:30:00,27.7,19.5,30.03,North,5,2.0,2.0,71,0.00,,,0.00,19,Wunderground v.1.15,2013-02-16 12:30:00,
2013-02-16 07:40:00,27.6,19.4,30.02,NNE,16,2.0,5.0,71,0.00,,,0.00,23,Wunderground v.1.15,2013-02-16 12:40:00,
2013-02-16 07:50:00,27.8,19.6,30.03,NNE,26,2.0,2.0,71,0.00,,,0.01,33,Wunderground v.1.15,2013-02-16 12:50:00,
2013-02-16 08:00:00,28.0,19.8,30.03,NW,304,1.0,2.0,71,0.00,,,0.01,56,Wunderground v.1.15,2013-02-16 13:00:00,
2013-02-16 08:10:00,28.3,20.1,30.03,NNW,338,2.0,2.0,71,0.00,,,0.01,69,Wunderground v.1.15,2013-02-16 13:10:00,
2013-02-16 08:20:00,28.7,20.5,30.03,NW,319,2.0,2.0,71,0.00,,,0.01,107,Wunderground v.1.15,2013-02-16 13:20:00,
2013-02-16 08:30:00,28.7,20.5,30.02,NNW,339,3.0,3.0,71,0.00,,,0.01,156,Wunderground v.1.15,2013-02-16 13:30:00,
2013-02-16 08:40:00,29.1,21.2,30.02,NNE,20,3.0,3.0,72,0.00,,,0.01,171,Wunderground v.1.15,2013-02-16 13:40:00,
2013-02-16 08:50:00,29.3,21.1,30.02,North,10,2.0,2.0,71,0.00,,,0.01,151,Wunderground v.1.15,2013-02-16 13:50:00,
2013-02-16 09:01:00,29.5,20.9,30.02,NNE,16,3.0,4.0,70,0.00,,,0.01,137,Wunderground v.1.15,2013-02-16 14:01:00,
2013-02-16 09:10:00,29.5,20.2,30.02,North,5,4.0,4.0,68,0.00,,,0.01,183,Wunderground v.1.15,2013-02-16 14:10:00,
2013-02-16 09:20:00,29.5,20.2,30.02,WNW,302,4.0,4.0,68,0.00,,,0.01,209,Wunderground v.1.15,2013-02-16 14:20:00,
2013-02-16 09:30:00,29.8,20.5,30.02,NNE,24,3.0,10.0,68,0.00,,,0.01,206,Wunderground v.1.15,2013-02-16 14:30:00,
2013-02-16 09:40:00,29.9,20.3,30.02,NNW,337,3.0,3.0,67,0.00,,,0.01,163,Wunderground v.1.15,2013-02-16 14:40:00,
2013-02-16 09:50:00,29.9,19.9,30.02,NNW,327,3.0,4.0,66,0.00,,,0.01,278,Wunderground v.1.15,2013-02-16 14:50:00,
2013-02-16 10:00:00,30.5,20.1,30.02,West,281,5.0,5.0,65,0.00,,,0.01,306,Wunderground v.1.15,2013-02-16 15:00:00,
2013-02-16 10:10:00,30.3,19.6,30.02,NW,306,5.0,5.0,64,0.00,,,0.01,220,Wunderground v.1.15,2013-02-16 15:10:00,
2013-02-16 10:20:00,30.4,20.0,30.01,NNW,348,4.0,5.0,65,0.00,,,0.01,269,Wunderground v.1.15,2013-02-16 15:20:00,
2013-02-16 10:30:00,30.7,19.6,30.02,NNW,330,4.0,4.0,63,0.00,,,0.01,294,Wunderground v.1.15,2013-02-16 15:30:00,
2013-02-16 10:40:00,30.7,18.8,30.02,NNE,17,5.0,5.0,61,0.00,,,0.01,269,Wunderground v.1.15,2013-02-16 15:40:00,
2013-02-16 10:50:00,30.6,19.1,30.01,NW,313,4.0,4.0,62,0.00,,,0.01,267,Wunderground v.1.15,2013-02-16 15:50:00,
2013-02-16 11:00:00,31.0,19.1,30.01,North,355,4.0,4.0,61,0.00,,,0.01,332,Wunderground v.1.15,2013-02-16 16:00:00,
2013-02-16 11:10:00,31.4,19.5,30.00,NE,38,4.0,4.0,61,0.00,,,0.01,229,Wunderground v.1.15,2013-02-16 16:10:00,
2013-02-16 11:20:00,31.4,19.1,30.00,NW,315,3.0,5.0,60,0.00,,,0.01,220,Wunderground v.1.15,2013-02-16 16:20:00,
2013-02-16 11:30:00,31.4,18.7,30.00,WNW,295,3.0,3.0,59,0.00,,,0.01,218,Wunderground v.1.15,2013-02-16 16:30:00,
2013-02-16 11:40:00,31.7,19.4,30.00,NNW,340,2.0,4.0,60,0.00,,,0.01,223,Wunderground v.1.15,2013-02-16 16:40:00,
2013-02-16 11:50:00,32.1,19.4,29.99,NNE,19,4.0,4.0,59,0.00,,,0.01,274,Wunderground v.1.15,2013-02-16 16:50:00,
2013-02-16 12:01:00,32.6,19.4,29.99,NNE,22,3.0,5.0,58,0.00,,,0.01,283,Wunderground v.1.15,2013-02-16 17:01:00,
2013-02-16 12:10:00,32.4,17.6,29.98,WNW,298,4.0,5.0,54,0.00,,,0.01,380,Wunderground v.1.15,2013-02-16 17:10:00,
2013-02-16 12:20:00,32.5,18.1,29.98,North,360,4.0,4.0,55,0.00,,,0.01,394,Wunderground v.1.15,2013-02-16 17:20:00,
2013-02-16 12:31:00,32.4,17.6,29.97,NNW,340,3.0,3.0,54,0.00,,,0.01,417,Wunderground v.1.15,2013-02-16 17:31:00,
2013-02-16 12:40:00,32.8,18.0,29.97,North,11,4.0,4.0,54,0.00,,,0.01,448,Wunderground v.1.15,2013-02-16 17:40:00,
2013-02-16 12:50:00,33.2,18.3,29.97,North,360,5.0,5.0,54,0.00,,,0.01,306,Wunderground v.1.15,2013-02-16 17:50:00,
2013-02-16 13:00:00,33.0,18.6,29.97,WNW,284,4.0,4.0,55,0.00,,,0.01,352,Wunderground v.1.15,2013-02-16 18:00:00,
2013-02-16 13:10:00,33.4,17.6,29.96,NNW,332,4.0,4.0,52,0.00,,,0.01,313,Wunderground v.1.15,2013-02-16 18:10:00,
2013-02-16 13:20:00,33.5,17.7,29.96,NNE,29,4.0,4.0,52,0.00,,,0.01,316,Wunderground v.1.15,2013-02-16 18:20:00,
2013-02-16 13:30:00,34.0,18.2,29.95,North,5,4.0,5.0,52,0.00,,,0.01,237,Wunderground v.1.15,2013-02-16 18:30:00,
2013-02-16 13:40:00,33.9,17.7,29.95,NW,325,4.0,6.0,51,0.00,,,0.01,385,Wunderground v.1.15,2013-02-16 18:40:00,
2013-02-16 13:50:00,33.9,18.6,29.95,WSW,240,3.0,3.0,53,0.00,,,0.01,288,Wunderground v.1.15,2013-02-16 18:50:00,
2013-02-16 14:10:00,34.0,17.7,29.95,NNW,329,3.0,3.0,51,0.00,,,0.01,192,Wunderground v.1.15,2013-02-16 19:10:00,
2013-02-16 14:20:00,33.7,17.9,29.94,NW,306,2.0,6.0,52,0.00,,,0.01,227,Wunderground v.1.15,2013-02-16 19:20:00,
2013-02-16 14:30:00,33.7,17.5,29.94,NW,313,3.0,3.0,51,0.00,,,0.01,220,Wunderground v.1.15,2013-02-16 19:30:00,
2013-02-16 14:40:00,33.6,17.8,29.94,West,262,3.0,4.0,52,0.00,,,0.01,176,Wunderground v.1.15,2013-02-16 19:40:00,
2013-02-16 14:50:00,33.4,16.7,29.93,NW,326,2.0,2.0,50,0.00,,,0.01,163,Wunderground v.1.15,2013-02-16 19:50:00,
2013-02-16 15:10:00,33.0,17.7,29.93,NW,317,2.0,6.0,53,0.00,,,0.01,114,Wunderground v.1.15,2013-02-16 20:10:00,
2013-02-16 15:20:00,32.6,16.4,29.93,West,281,3.0,3.0,51,0.00,,,0.01,111,Wunderground v.1.15,2013-02-16 20:20:00,
2013-02-16 15:30:00,32.5,17.7,29.92,NW,307,2.0,2.0,54,0.00,,,0.01,98,Wunderground v.1.15,2013-02-16 20:30:00,
2013-02-16 15:40:00,32.4,17.6,29.92,WNW,294,2.0,3.0,54,0.00,,,0.01,83,Wunderground v.1.15,2013-02-16 20:40:00,
2013-02-16 15:50:00,32.4,17.2,29.92,WNW,282,2.0,2.0,53,0.00,,,0.01,81,Wunderground v.1.15,2013-02-16 20:50:00,
2013-02-16 16:10:00,32.3,17.1,29.93,North,350,3.0,3.0,53,0.00,,,0.01,49,Wunderground v.1.15,2013-02-16 21:10:00,
2013-02-16 16:20:00,32.1,17.3,29.92,North,360,2.0,2.0,54,0.00,,,0.01,53,Wunderground v.1.15,2013-02-16 21:20:00,
2013-02-16 16:30:00,32.0,16.8,29.92,West,272,1.0,2.0,53,0.00,,,0.01,44,Wunderground v.1.15,2013-02-16 21:30:00,
2013-02-16 16:40:00,31.9,17.5,29.92,NW,309,2.0,2.0,55,0.00,,,0.01,28,Wunderground v.1.15,2013-02-16 21:40:00,
2013-02-16 16:50:00,31.7,16.9,29.92,NW,306,2.0,4.0,54,0.00,,,0.01,21,Wunderground v.1.15,2013-02-16 21:50:00,
2013-02-16 17:01:00,31.5,17.6,29.92,NW,309,2.0,2.0,56,0.00,,,0.01,12,Wunderground v.1.15,2013-02-16 22:01:00,
2013-02-16 17:10:00,31.3,17.0,29.92,West,281,2.0,4.0,55,0.00,,,0.01,5,Wunderground v.1.15,2013-02-16 22:10:00,
2013-02-16 17:20:00,31.1,17.2,29.92,WNW,290,2.0,2.0,56,0.00,,,0.01,0,Wunderground v.1.15,2013-02-16 22:20:00,
2013-02-16 17:30:00,30.9,17.4,29.93,WNW,294,1.0,1.0,57,0.00,,,0.01,0,Wunderground v.1.15,2013-02-16 22:30:00,
2013-02-16 17:40:00,30.8,16.5,29.92,WNW,301,3.0,3.0,55,0.00,,,0.01,0,Wunderground v.1.15,2013-02-16 22:40:00,
2013-02-16 17:50:00,30.6,16.3,29.93,North,355,3.0,3.0,55,0.00,,,0.01,0,Wunderground v.1.15,2013-02-16 22:50:00,
2013-02-16 18:00:00,30.4,16.6,29.93,WNW,296,2.0,2.0,56,0.00,,,0.01,0,Wunderground v.1.15,2013-02-16 23:00:00,
2013-02-16 18:10:00,30.3,16.5,29.93,NW,322,3.0,3.0,56,0.00,,,0.01,0,Wunderground v.1.15,2013-02-16 23:10:00,
2013-02-16 18:20:00,30.1,16.7,29.93,NW,313,1.0,2.0,57,0.00,,,0.01,0,Wunderground v.1.15,2013-02-16 23:20:00,
2013-02-16 18:30:00,30.1,15.9,29.93,NW,317,2.0,2.0,55,0.00,,,0.01,0,Wunderground v.1.15,2013-02-16 23:30:00,
2013-02-16 18:40:00,30.0,15.8,29.93,NW,312,1.0,1.0,55,0.00,,,0.01,0,Wunderground v.1.15,2013-02-16 23:40:00,
2013-02-16 18:50:00,29.9,15.7,29.93,NE,47,2.0,2.0,55,0.00,,,0.01,0,Wunderground v.1.15,2013-02-16 23:50:00,
2013-02-16 19:00:00,30.0,15.3,29.93,North,355,2.0,4.0,54,0.00,,,0.01,0,Wunderground v.1.15,2013-02-17 00:00:00,
2013-02-16 19:10:00,30.0,14.9,29.94,NE,35,4.0,4.0,53,0.00,,,0.01,0,Wunderground v.1.15,2013-02-17 00:10:00,
2013-02-16 19:20:00,29.9,15.3,29.93,NW,322,2.0,2.0,54,0.00,,,0.01,0,Wunderground v.1.15,2013-02-17 00:20:00,
2013-02-16 19:30:00,29.8,15.6,29.93,North,5,2.0,9.0,55,0.00,,,0.01,0,Wunderground v.1.15,2013-02-17 00:30:00,
2013-02-16 19:40:00,29.8,17.2,29.93,NNE,31,5.0,5.0,59,0.00,,,0.01,0,Wunderground v.1.15,2013-02-17 00:40:00,
2013-02-16 19:50:00,29.7,17.1,29.92,NNW,338,5.0,5.0,59,0.00,,,0.01,0,Wunderground v.1.15,2013-02-17 00:50:00,
2013-02-16 20:00:00,29.6,16.6,29.92,North,11,4.0,4.0,58,0.00,,,0.01,0,Wunderground v.1.15,2013-02-17 01:00:00,
2013-02-16 20:10:00,29.4,16.0,29.92,North,355,4.0,4.0,57,0.00,,,0.01,0,Wunderground v.1.15,2013-02-17 01:10:00,
2013-02-16 20:20:00,29.2,15.0,29.92,North,5,6.0,6.0,55,0.00,,,0.01,0,Wunderground v.1.15,2013-02-17 01:20:00,
2013-02-16 20:30:00,29.0,15.2,29.91,NNE,31,4.0,6.0,56,0.00,,,0.01,0,Wunderground v.1.15,2013-02-17 01:30:00,
2013-02-16 20:40:00,28.8,15.5,29.91,NE,43,4.0,4.0,57,0.00,,,0.01,0,Wunderground v.1.15,2013-02-17 01:40:00,
2013-02-16 20:50:00,28.7,15.8,29.92,North,360,3.0,5.0,58,0.00,,,0.01,0,Wunderground v.1.15,2013-02-17 01:50:00,
2013-02-16 21:00:00,28.5,16.0,29.92,NNE,13,4.0,4.0,59,0.00,,,0.01,0,Wunderground v.1.15,2013-02-17 02:00:00,
2013-02-16 21:10:00,28.4,15.5,29.92,NE,36,5.0,5.0,58,0.00,,,0.01,0,Wunderground v.1.15,2013-02-17 02:10:00,
2013-02-16 21:20:00,28.1,14.8,29.91,NNE,32,6.0,6.0,57,0.00,,,0.01,0,Wunderground v.1.15,2013-02-17 02:20:00,
2013-02-16 21:30:00,27.9,14.2,29.91,North,355,6.0,6.0,56,0.00,,,0.01,0,Wunderground v.1.15,2013-02-17 02:30:00,
2013-02-16 21:40:00,27.6,13.9,29.91,ENE,69,5.0,5.0,56,0.00,,,0.01,0,Wunderground v.1.15,2013-02-17 02:40:00,
2013-02-16 21:50:00,27.4,13.3,29.92,NNE,16,4.0,9.0,55,0.00,,,0.01,0,Wunderground v.1.15,2013-02-17 02:50:00,
2013-02-16 22:01:00,27.2,12.7,29.91,North,11,5.0,5.0,54,0.00,,,0.01,0,Wunderground v.1.15,2013-02-17 03:01:00,
2013-02-16 22:10:00,27.0,12.1,29.90,NNE,30,5.0,6.0,53,0.00,,,0.01,0,Wunderground v.1.15,2013-02-17 03:10:00,
2013-02-16 22:20:00,26.8,11.9,29.90,ENE,74,6.0,11.0,53,0.00,,,0.01,0,Wunderground v.1.15,2013-02-17 03:20:00,
2013-02-16 22:30:00,26.6,11.7,29.90,NNW,348,5.0,5.0,53,0.00,,,0.01,0,Wunderground v.1.15,2013-02-17 03:30:00,
2013-02-16 22:40:00,26.5,12.1,29.91,North,5,4.0,5.0,54,0.00,,,0.01,0,Wunderground v.1.15,2013-02-17 03:40:00,
2013-02-16 22:50:00,26.3,11.9,29.90,North,9,6.0,6.0,54,0.00,,,0.01,0,Wunderground v.1.15,2013-02-17 03:50:00,
2013-02-16 23:00:00,26.2,11.8,29.90,ENE,69,5.0,5.0,54,0.00,,,0.01,0,Wunderground v.1.15,2013-02-17 04:00:00,
2013-02-16 23:10:00,26.0,12.0,29.90,NNE,15,4.0,4.0,55,0.00,,,0.01,0,Wunderground v.1.15,2013-02-17 04:10:00,
2013-02-16 23:20:00,25.8,12.2,29.89,NNE,24,5.0,7.0,56,0.00,,,0.01,0,Wunderground v.1.15,2013-02-17 04:20:00,
2013-02-16 23:30:00,25.7,12.6,29.89,NNE,21,4.0,5.0,57,0.00,,,0.01,0,Wunderground v.1.15,2013-02-17 04:30:00,
2013-02-16 23:40:00,25.5,12.4,29.89,ENE,65,4.0,4.0,57,0.00,,,0.01,0,Wunderground v.1.15,2013-02-17 04:40:00,
2013-02-16 23:50:00,25.4,13.1,29.88,NNE,24,2.0,3.0,59,0.00,,,0.01,0,Wunderground v.1.15,2013-02-17 04:50:00,